Location: Christchurch
(43.5330°S, 172.6330°E)
Time: 23:35:34
(UTC+13:00)

ERBS - Pass Details

Date: 24 January 2019
Orbit: 418 x 431 km, 57.0° (Epoch: 20 February)

Event Time Altitude Azimuth Distance (km) Brightness Sun altitude
Rises 22:29:18 0° 223° (SW) 2,445 8.2 -13.3°
Reaches altitude 10° 22:31:31 10° 215° (SW) 1,570 6.5 -13.6°
Maximum altitude 22:34:52 39° 144° (SE) 675 3.3 -14.1°
Enters shadow 22:36:46 21° 85° (E) 1,050 3.8 -14.3°
